DW0529 Weather Reports


Display with metric or nautical units.
time (UTC)temp
F
wind
direction
speed
MPH
gust
MPH
rain 1hr
in
rain 24hr
in
rain mn
in
humidity
%
barometer
mb
20260904102134 61 200 0.0 0.0 0.00 0.00 0.00 94 967.9
20260904101154 61 200 0.0 0.0 0.00 0.00 0.00 94 967.8
20260904100153 61 200 0.0 0.0 0.00 0.00 0.00 94 967.9
20260904094041 60 200 0.0 0.0 0.00 0.00 0.00 93 967.8
20260904093015 61 200 0.0 0.0 0.00 0.00 0.00 93 967.8
20260904092034 61 200 0.0 0.0 0.00 0.00 0.00 92 967.8
20260904091032 61 200 0.0 0.0 0.00 0.00 0.00 92 967.8
20260904084849 61 200 0.0 0.0 0.00 0.00 0.00 92 968.0
20260904083850 61 200 0.0 0.0 0.00 0.00 0.00 92 968.0
20260904082900 60 200 0.0 0.0 0.00 0.00 0.00 92 968.0
20260904081909 61 200 0.0 0.0 0.00 0.00 0.00 92 968.1
20260904080913 61 200 0.0 0.0 0.00 0.00 0.00 92 968.2
20260904075858 61 200 0.0 0.0 0.00 0.00 0.00 91 968.2
20260904073710 61 200 0.0 0.0 0.00 0.00 0.00 90 968.3
20260904071511 62 200 0.0 0.0 0.00 0.00 0.00 90 968.2
20260904070502 62 200 0.0 0.0 0.00 0.00 0.00 89 968.1
20260904065516 62 200 0.0 0.0 0.00 0.00 0.00 89 968.0
20260904064458 62 200 0.0 0.0 0.00 0.00 0.00 88 968.1
20260904062329 63 200 0.0 0.0 0.00 0.00 0.00 87 968.0
20260904060128 62 200 0.0 0.0 0.00 0.00 0.00 83 967.8
20260904055123 62 200 0.0 0.0 0.00 0.00 0.00 80 967.8
20260904053012 62 200 0.0 0.0 0.00 0.00 0.00 74 968.0
20260904052006 63 200 0.0 0.0 0.00 0.00 0.00 79 967.9
20260904051002 64 200 0.0 0.0 0.00 0.00 0.00 83 968.0
20260904050023 63 200 0.0 0.0 0.00 0.00 0.00 80 968.1
20260904043847 62 200 0.0 0.0 0.00 0.00 0.00 79 967.9
20260904042859 62 200 0.0 0.0 0.00 0.00 0.00 80 967.8
20260904041900 62 200 0.0 0.0 0.00 0.00 0.00 82 967.8
20260904040906 62 200 0.0 0.0 0.00 0.00 0.00 84 967.7
20260904035900 63 200 0.0 0.0 0.00 0.00 0.00 85 967.7
20260904033731 63 200 0.0 0.0 0.00 0.00 0.00 87 967.6
20260904032710 63 200 0.0 0.0 0.00 0.00 0.00 85 967.4
20260904031734 64 200 0.0 0.0 0.00 0.00 0.00 85 967.4
20260904030720 64 200 0.0 0.0 0.00 0.00 0.00 84 967.4
20260904025719 64 200 0.0 0.0 0.00 0.00 0.00 83 967.4
20260904024702 65 200 0.0 0.0 0.00 0.00 0.00 82 967.3
20260904023630 65 200 0.0 0.0 0.00 0.00 0.00 81 967.3
20260904022642 66 200 0.0 0.0 0.00 0.00 0.00 80 967.2
20260904021616 66 200 0.0 0.0 0.00 0.00 0.00 79 967.2
20260904020628 67 198 0.0 5.0 0.00 0.00 0.00 79 967.2
20260904015653 68 210 0.0 3.0 0.00 0.00 0.00 76 967.3
20260904014658 69 211 0.0 2.0 0.00 0.00 0.00 73 967.3
20260904013639 69 192 0.0 3.0 0.00 0.00 0.00 71 967.3
20260904012652 70 204 0.0 3.0 0.00 0.00 0.00 69 967.3
20260904011659 71 204 0.0 4.0 0.00 0.00 0.00 68 967.3
20260904010704 71 172 0.0 4.0 0.00 0.00 0.00 67 967.4
20260904005713 71 186 1.0 6.0 0.00 0.00 0.00 68 967.4
20260904004654 72 234 1.0 6.0 0.00 0.00 0.00 65 967.4
20260904001436 74 175 1.0 6.0 0.00 0.00 0.00 61 967.5
20260904000432 74 198 1.0 7.0 0.00 0.00 0.00 62 967.6
20260903235403 74 169 2.0 7.0 0.00 0.00 0.00 61 967.5
20260903234343 75 235 2.0 6.0 0.00 0.00 0.00 60 967.5
20260903232217 74 182 3.0 10.0 0.00 0.00 0.00 60 967.8
20260903231241 73 185 3.0 10.0 0.00 0.00 0.00 62 967.9
20260903230251 74 211 2.0 9.0 0.00 0.00 0.00 61 968.0
20260903225225 74 232 2.0 9.0 0.00 0.00 0.00 61 968.0
20260903224232 74 225 2.0 9.0 0.00 0.00 0.00 61 968.0
20260903223211 75 235 2.0 7.0 0.00 0.00 0.00 61 968.1
20260903222229 75 169 1.0 10.0 0.00 0.00 0.00 59 968.3
20260903221221 75 283 2.0 10.0 0.00 0.00 0.00 61 968.3
20260903220154 75 198 2.0 9.0 0.00 0.00 0.00 60 968.5
20260903215131 75 227 2.0 9.0 0.00 0.00 0.00 60 968.6
20260903214155 75 178 2.0 8.0 0.00 0.00 0.00 58 968.6
20260903213202 75 192 3.0 8.0 0.00 0.00 0.00 60 968.6
20260903212150 76 205 2.0 7.0 0.00 0.00 0.00 59 968.6
20260903211126 75 240 2.0 8.0 0.00 0.00 0.00 59 968.7
20260903205006 75 175 3.0 8.0 0.00 0.00 0.00 59 968.9
20260903204016 74 167 3.0 8.0 0.00 0.00 0.00 61 968.9
20260903203015 74 254 2.0 8.0 0.00 0.00 0.00 61 968.8
20260903202027 75 242 2.0 7.0 0.00 0.00 0.00 60 968.8
20260903201030 75 234 1.0 7.0 0.00 0.00 0.00 60 968.8
20260903200054 75 247 1.0 5.0 0.00 0.00 0.00 60 968.9
20260903195109 76 223 1.0 5.0 0.00 0.00 0.00 59 969.0
20260903194118 76 212 1.0 8.0 0.00 0.00 0.00 59 969.0
20260903193050 76 261 2.0 8.0 0.00 0.00 0.00 59 969.1
20260903192035 76 146 1.0 5.0 0.00 0.00 0.00 59 969.2
20260903191041 75 257 1.0 6.0 0.00 0.00 0.00 61 969.3
20260903184856 75 221 1.0 6.0 0.00 0.00 0.00 57 969.6
20260903183855 75 202 1.0 6.0 0.00 0.00 0.00 57 969.7
20260903182902 74 183 1.0 6.0 0.00 0.00 0.00 58 969.9
20260903181920 74 228 1.0 6.0 0.00 0.00 0.00 60 970.0
20260903180941 73 146 0.0 6.0 0.00 0.00 0.00 62 970.0
20260903175950 72 203 1.0 6.0 0.00 0.00 0.00 62 970.1
20260903174953 72 113 1.0 7.0 0.00 0.00 0.00 63 970.1
20260903174014 71 212 1.0 7.0 0.00 0.00 0.00 64 970.1
20260903171838 69 200 0.0 4.0 0.00 0.00 0.00 69 970.1
20260903170818 68 219 0.0 5.0 0.00 0.00 0.00 73 970.2
20260903165829 68 211 0.0 5.0 0.00 0.00 0.00 72 970.1
20260903164809 67 234 0.0 5.0 0.00 0.00 0.00 75 970.0
20260903163756 67 175 0.0 5.0 0.00 0.00 0.00 76 970.0
20260903160527 66 210 0.0 1.0 0.00 0.00 0.00 81 969.9
20260903154449 65 210 0.0 3.0 0.00 0.00 0.00 82 970.0
20260903153433 64 169 0.0 3.0 0.00 0.00 0.00 85 970.0
20260903152452 64 169 0.0 0.0 0.00 0.00 0.00 86 970.0
20260903145231 63 169 0.0 0.0 0.00 0.00 0.00 86 969.8
20260903144225 63 169 0.0 0.0 0.00 0.00 0.00 88 969.8
20260903142015 63 169 0.0 0.0 0.00 0.00 0.00 90 969.5
20260903141027 63 169 0.0 0.0 0.00 0.00 0.00 91 969.5
20260903140026 63 169 0.0 0.0 0.00 0.00 0.00 91 969.4
20260903131610 63 332 0.0 1.0 0.00 0.00 0.00 93 969.2
20260903125457 62 333 0.0 0.0 0.00 0.00 0.00 93 969.3
20260903124442 62 333 0.0 0.0 0.00 0.00 0.00 93 969.1
20260903121200 62 333 0.0 0.0 0.00 0.00 0.00 93 969.1
20260903120128 62 333 0.0 0.0 0.00 0.00 0.00 92 969.2
20260903115112 61 333 0.0 0.0 0.00 0.00 0.00 92 969.2
20260903112930 61 333 0.0 0.0 0.00 0.00 0.00 92 969.3
20260903105635 61 331 0.0 0.0 0.00 0.00 0.00 90 969.5
20260903104621 61 330 0.0 0.0 0.00 0.00 0.00 89 969.5